Погода Маресале

Погода Маресале : погода сейчас, прогноз погоды и архив. Всё, что Вы хотите узнать о погоде Маресале!

Хотите узнать прогноз погоды Маресале? Тогда Вам сюда: Погода Маресале

Поиск расширенной информации на нашем сайте:

Другие новости

Новости СМИ2

Главная страница сайта

Новости сайта

03.07.2017

Напоминаем, что на нашем специализированном сайте Метеоцентр.Азия вы можете получить высокодетализированные автоматические прогнозы погоды по пунктам России, СНГ и мира в авиационном формате (включающие направление и скорость ветра, видимость, явления погоды, количество и форму облачности, нижнюю и верхнюю границу облачности).


Погода Маресале - сегодня

Время (UTC), дата Ветер
(°,м/с) 
Видим.   Явления Облачность Т
(°С)
Тd
(°С)
f(%) Тe
(°С)
Pmin
(гПа)
dP
(гПа)
Po
(мм)
O2
(г/м3)
Тmin Tmax R s Состояние
почвы
12 19.02.18 340 (С) 10 км    3/3 200 м 
[St]
-27.2 -29.6 80 -34  1025.4  1.4  767  345           
18 19.02.18 250 (З) 2000 м  дымка  3/3 600 м 
[Sc]
-23 -24.7 86 -23  1026.9  0.3  767  339           
21 19.02.18 250 (З) 10 км    3/3 200 м 
[St]
-22.4 -24 87 -23  1027.1  0.3  768  339           
00 20.02.18 230 (ЮЗ) 10 км    3/3 200 м 
[St]
-22.4 -23.9 88 -23  1027.5  0.3  768  339           
06 20.02.18 170 (Ю) 10 км    3/3 200 м 
[St]
-26.3 -28.4 82 -30  1028  0.3  768  344  -26.9         
09 20.02.18 170 (Ю) 10 км    3/3 200 м 
[St]
-26.1 -28.1 83 -29  1028.7  0.7  769  344           
12 20.02.18 130 (ЮВ) 10 км    3/3 200 м 
[St]
-28.7 -31 81 -34  1029.8  770  348           
18 20.02.18 120 (ЮВ) 10 км    6/6 1300 м 
[Sc]
-28.3 -30.6 81 -34  1030.5  0.3  770  348           
21 20.02.18 110 (В) 10 км    3/3 600 м 
[Sc]
-28.2 -30.4 81 -34  1031.2  0.7  771  348           
00 21.02.18 090 (В) 10 км    3/3 600 м 
[Sc]
-28.3 -30.5 81 -34  1031.9  0.6  771  349           
06 21.02.18 100 (В) 10 км    ясно 
-31.6 -34.2 78 -39  1032.4  0.4  772  354  -32.4         
09 21.02.18 080 (В) 10 км    ясно 
-31.1 -33.7 78 -37  1032.8  0.4  772  353           
12 21.02.18 070 (В) 2000 м  позёмок  ясно 
-32.2 -34.9 77 -40  1033.3  0.4  772  355           
03 22.02.18 040 (СВ) 10 км    1/1 600 м 
[Sc]
-33.2 -36 76 -37  1033.3  -0.6  772  356  -33.3      28  неравномерный
сухой снег
100% 
06 22.02.18 тихо ()   10 км    3/3 600 м 
[Sc]
-30.7 -33.2 79 -31  1032.6  -0.6  772  352           
09 22.02.18 050 (СВ) 2000 м  дымка  10/5 270 м средняя 
[St|As trans]
-30 -32.4 80 -31  1032.1  -0.5  771  351           
12 22.02.18 040 (СВ) 2000 м    10/6 240 м средняя 
[St|As trans]
-30.2 -32.7 79 -34  1032  -0.1  771  351           
18 22.02.18 030 (СВ) 4000 м  дымка  3/3 200 м 
[St]
-29.4 -31.8 80 -33  1032.3  0.1  771  350           
21 22.02.18 020 (С) 4000 м  дымка  3/3 200 м 
[St]
-30.3 -32.8 79 -34  1032.2  -0.1  771  352           
00 23.02.18 040 (СВ) 10 км    ясно 
-28.2 -30.5 81 -34  1032.2  771  349           
03 23.02.18 010 (С) 10 км    6/0 средняя 
[Ac trans]
-27.4 -29.5 82 -31  1031  -1.1  771  347  -31.4      28  неравномерный
сухой снег
100% 
06 23.02.18 350 (С) 10 км    3/3 600 м 
[Sc]
-27.4 -29.5 82 -28  1029.9  -1.1  770  347           
09 23.02.18 010 (С) 10 км    10/10 240 м 
[St]
-22.7 -24.3 87 -23  1029.4  -0.5  769  340           
12 23.02.18 010 (С) 4000 м  метель  10/6 600 м средняя 
[Sc|Ac trans]
-19.7 -21.1 89 -28  1028.6  -0.7  769  336           
21 23.02.18 030 (СВ) 10 км  позёмок  3/3 600 м 
[Sc]
-25.9 -27.9 83 -33  1029.2  769  344           
Время (UTC), дата Ветер
(°,м/с) 
Видим.   Явления Облачность Т
(°С)
Тd
(°С)
f(%) Тe
(°С)
Pmin
(гПа)
dP
(гПа)
Po
(мм)
O2
(г/м3)
Тmin Tmax R s Состояние
почвы

Для получения пояснительной информации подведите курсор к названию столбца.

ПОГОДА Маресале - архив

Всё, что Вы хотите узнать о погоде Маресале - удобно и подробно!

Выберите нужную дату (начиная с 1 января 2015* года) и нажмите кнопку "Найти".
Будут отображены архивные сводки погоды по пункту Маресале, начиная с указанной даты.


Отображать данные в формате CSV (для использования в таблицах Excel)


Внимание! Наш архив погоды предназначен исключительно для личного некоммерческого использования в познавательных целях. Если Вам необходимы официальные справки о состоянии погоды (для производственных, юридических, коммерческих и т.п. целей), обращайтесь в органы Росгидромета.

*Примечание: данная дата относится к архиву по метеостанциям СССР (Россия, СНГ, Балтия).
Архив по метеостанциям Зарубежной Европы и Азии (кроме Китая) хранится 10 дней, по другим регионам земного шара (Китай, Африка, Америка, Австралия, Океания) - 1 день.

Маресале - район местоположения метеостанции


Название, широта, долгота, высота метеостанции:
Маресале 69.7°ш. 66.8°д. 25 м над ур. моря [Российская Федерация]

Дополнительная информация

В oтличие oт бoльшинства пoгoдных сайтoв мы публикуем пoдрoбную метеoинфoрмацию в детальнoм прoфессиoнальнoм фoрмате.

Характеристики температуры и влажнoсти вoздуха измеряются на высoте 2 м в тени вдали oт зданий и деревьев.
Скoрoсть ветра измеряется на высoте 10 м (на урoвне рoста челoвека скoрoсть ветра ниже в 1.5-2 раза). Если метеoстанция нахoдится в гoрoде или в лесу, тo скoрoсть ветра занижена на 2-4 м/с пo сравнению с oткрытым местoм. Скoрoсть ветра над акватoриями крупных рек и oзёр, а также на вершинах хoлмoв на 2-5 м/с выше, чем в oбычных услoвиях.
Атмoсфернoе давление в разных тoчках местнoсти мoжет значительнo oтличаться oт давления на метеoстанции, в зависимoсти oт услoвий рельефа (при пoдъёме на 10 м давление пoнижается примернo на 1 мм рт.ст.).